Flag for Senegal Weather past 2 weeks in Dakar, Senegal

Now
66 °F

Clear.


Feels Like: 66 °F
Forecast: N/A
Wind: 8 mph from North

Location: Dakar / Yoff

Current Time: Jan 25, 2015 at 11:27:02 PM

Latest Report: Jan 25, 2015 at 11:00 PM


Visibility: 10 mi

Pressure: 29.95 "Hg

Humidity: 83%

Dew point: 61 °F

Location of DakarLocation

Historic Weather in Dakar — Graph

°F

Dakar temperature yesterday

Maximum temperature yesterday: 72 °F (at 1:00 PM)
Minimum temperature yesterday: 64 °F (at 6:30 AM)
Average temperature yesterday: 68 °F

Past Weeks' High & Low Weather Summary

 TemperatureHumidityPressure
High81 °F (Jan 11, 2:30 PM)94% (Jan 12, 1:00 AM)30.07 "Hg (Jan 12, 1:00 AM)
Low64 °F (Jan 17, 4:30 AM)34% (Jan 11, 2:30 PM)29.83 "Hg (Jan 25, 4:30 PM)
Average69 °F74%29.95 "Hg
* Reported Jan 10 10:00 PM — Jan 25 10:00 PM, Dakar, Weather by CustomWeather, © 2014

Note: Actual official high and low records may vary slightly from our data, if they occured in-between our weather recording intervals... More about our weather records

Advertising

Dakar weather history for previous 24 hours

 ConditionsComfort  
Time TempWeatherWind HumidityBarometerVisibility
10:00 PM
Jan 25
66 °FClear.9 mph83%29.92 "Hg10 mi
9:30 PM66 °FClear.9 mph83%29.92 "Hg10 mi
9:00 PM66 °FClear.10 mph78%29.92 "Hg10 mi
8:30 PM66 °FClear.6 mph78%29.89 "Hg10 mi
8:00 PM66 °FClear.9 mph78%29.89 "Hg10 mi
7:30 PM66 °FClear.12 mph78%29.86 "Hg10 mi
7:00 PM68 °FSunny.13 mph73%29.86 "Hg10 mi
6:30 PM68 °FSunny.14 mph73%29.86 "Hg10 mi
6:00 PM70 °FSunny.15 mph64%29.86 "Hg10 mi
5:30 PM70 °FSunny.15 mph64%29.83 "Hg10 mi
5:00 PM70 °FSunny.17 mph60%29.83 "Hg10 mi
4:30 PM72 °FSunny.17 mph61%29.83 "Hg10 mi
4:00 PM73 °FSunny.16 mph53%29.86 "Hg10 mi
3:30 PM72 °FSunny.18 mph61%29.86 "Hg10 mi
3:00 PM72 °FSunny.16 mph61%29.86 "Hg10 mi
2:30 PM72 °FSunny.16 mph57%29.86 "Hg10 mi
2:00 PM70 °FSunny.17 mph64%29.89 "Hg10 mi
1:30 PM70 °FSunny.15 mph60%29.89 "Hg10 mi
1:00 PM70 °FSunny.17 mph64%29.92 "Hg10 mi
12:30 PM70 °FSunny.17 mph64%29.92 "Hg10 mi
12:00 PM70 °FSunny.16 mph64%29.92 "Hg10 mi
11:30 AM70 °FSunny.16 mph69%29.95 "Hg10 mi
11:00 AM68 °FSunny.15 mph73%29.95 "Hg10 mi
10:30 AM68 °FSunny.15 mph73%29.95 "Hg10 mi
10:00 AM68 °FSunny.14 mph78%29.95 "Hg10 mi
9:30 AM66 °FSunny.13 mph83%29.95 "Hg10 mi
9:00 AM66 °FClear.No wind83%29.95 "Hg5 mi
8:30 AM64 °FClear.14 mph88%29.92 "Hg5 mi
8:00 AM64 °FClear.13 mph88%29.92 "Hg5 mi
7:30 AM64 °FClear.13 mph88%29.92 "Hg5 mi
7:00 AM64 °FClear.13 mph88%29.92 "Hg5 mi
6:30 AM64 °FClear.12 mph88%29.89 "Hg5 mi
6:00 AM64 °FClear.12 mph88%29.89 "Hg10 mi
5:30 AM64 °FClear.12 mph88%29.92 "Hg10 mi
5:00 AM64 °FClear.10 mph88%29.92 "Hg10 mi
4:30 AM64 °FClear.12 mph88%29.92 "Hg10 mi
4:00 AM64 °FClear.12 mph88%29.92 "Hg10 mi
3:30 AM64 °FClear.9 mph88%29.92 "Hg10 mi
3:00 AM64 °FClear.8 mph88%29.92 "Hg10 mi
2:30 AM64 °FClear.8 mph88%29.95 "Hg10 mi
2:00 AM66 °FClear.10 mph83%29.95 "Hg10 mi
1:30 AM66 °FClear.8 mph83%29.95 "Hg10 mi
1:00 AM66 °FClear.9 mph83%29.95 "Hg10 mi
12:30 AM66 °FClear.9 mph83%29.95 "Hg10 mi
12:00 AM66 °FClear.9 mph78%29.95 "Hg10 mi
11:30 PM
Jan 24
66 °FClear.12 mph78%29.95 "Hg10 mi
11:00 PM66 °FClear.8 mph78%29.98 "Hg10 mi
Weather by CustomWeather, © 2014

See weather overviewHow to use our weather pages